Flag for U.S.A. Weather past 2 weeks in Pasco, Washington, U.S.A.

Now
42 °F

Clear.


Feels Like: 42 °F
Forecast: 44 / 81 °F
Wind: No wind

Location: Tri-Cities Airport

Current Time: Apr 21, 2015 at 4:58:00 AM

Latest Report: Apr 21, 2015 at 3:53 AM


Visibility: 10 mi

Pressure: 29.79 "Hg

Humidity: 89%

Dew point: 39 °F

Location of PascoLocation

Historic Weather in Pasco — Graph

°F

Pasco temperature yesterday

Maximum temperature yesterday: 80 °F (at 3:53 PM)
Minimum temperature yesterday: 39 °F (at 5:53 AM)
Average temperature yesterday: 59 °F

Past Weeks' High & Low Weather Summary

 TemperatureHumidityPressure
High80 °F (Apr 20, 3:53 PM)93% (Apr 7, 1:53 AM)30.49 "Hg (Apr 7, 1:53 AM)
Low29 °F (Apr 16, 4:53 AM)17% (Apr 18, 2:53 PM)29.72 "Hg (Apr 6, 2:53 AM)
Average53 °F53%30.04 "Hg
* Reported Apr 6 2:53 AM — Apr 21 2:53 AM, Pasco, Weather by CustomWeather, © 2015

Note: Actual official high and low records may vary slightly from our data, if they occured in-between our weather recording intervals... More about our weather records

Advertising

Pasco weather history for previous 24 hours

 ConditionsComfort  
Time TempWeatherWind HumidityBarometerVisibility
2:53 AM
Tue, Apr 21
43 °FClear.No wind93%29.78 "Hg10 mi
1:53 AM47 °FClear.3 mph83%29.78 "Hg10 mi
12:53 AM50 °FClear.5 mph71%29.79 "Hg10 mi
11:53 PM
Mon, Apr 20
52 °FClear.3 mph72%29.78 "Hg10 mi
10:53 PM49 °FClear.3 mph84%29.78 "Hg10 mi
9:53 PM52 °FClear.6 mph75%29.78 "Hg10 mi
8:53 PM58 °FClear.No wind54%29.77 "Hg10 mi
7:53 PM72 °FSunny.3 mph23%29.76 "Hg10 mi
6:53 PM77 °FSunny.5 mph18%29.77 "Hg10 mi
5:53 PM79 °FSunny.7 mph17%29.78 "Hg10 mi
4:53 PM79 °FSunny.3 mph20%29.80 "Hg10 mi
3:53 PM80 °FSunny.No wind18%29.81 "Hg10 mi
2:53 PM79 °FSunny.3 mph20%29.84 "Hg10 mi
1:53 PM77 °FSunny.6 mph22%29.86 "Hg10 mi
12:53 PM75 °FSunny.3 mph24%29.89 "Hg10 mi
11:53 AM69 °FSunny.3 mph32%29.91 "Hg10 mi
10:53 AM65 °FSunny.No wind42%29.93 "Hg10 mi
9:53 AM60 °FSunny.No wind46%29.95 "Hg10 mi
8:53 AM54 °FSunny.No wind59%29.95 "Hg10 mi
7:53 AM48 °FSunny.No wind74%29.96 "Hg10 mi
6:53 AM39 °FClear.No wind89%29.96 "Hg10 mi
5:53 AM39 °FClear.No wind93%29.95 "Hg10 mi
4:53 AM42 °FClear.No wind82%29.94 "Hg10 mi
Weather by CustomWeather, © 2015

See weather overviewHow to use our weather pages